Strait of Georgia - south of Nanaimo: Past 24 Hour Conditions

 

East Dellwood - 46207

05:00 AM PDT 29 July 2014Buoy position: 50.88N 129.93W
This table is a summary of hourly weather conditions for the past 24 hours.
Date / Time
(PDT)
Wind(knots) Wave height(m) Wave period(s) Pressure(kPa) Air tempC) Water tempC)
29 July 2014
5:00 SW 14 gust 16 1.7 8.0 101.9 15 16
4:00 SSW 12 gust 14 1.7 8.0 101.9 15 16
3:00 SSW 14 gust 18 1.7 7.0 101.8 15 16
2:00 SSW 16 gust 19 1.6 7.0 101.8 16 16
1:00 SSW 16 gust 19 1.6 6.0 101.8 15 16
0:00 S 18 gust 19 1.6 7.0 101.8 16 16
28 July 2014
23:00 S 19 gust 23 1.5 7.0 101.8 16 16
22:00 SSE 19 gust 23 1.5 6.0 101.8 16 16
21:00 SSE 19 gust 23 1.5 5.0 101.8 16 16
20:00 SSE 19 gust 23 1.4 6.0 101.8 16 16
19:00 SSE 19 gust 23 1.4 6.0 101.9 16 16
18:00 SSE 18 gust 21 1.3 6.0 101.9 16 16
17:00 SSE 18 gust 21 1.2 4.0 101.9 16 16
16:00 SSE 18 gust 21 1.2 5.0 102.0 16 16
15:00 SSE 16 gust 19 1.1 4.0 102.0 16 16
14:00 SSE 16 gust 19 1.1 5.0 102.0 15 16
13:00 SSE 16 gust 19 1.1 8.0 102.0 16 16
12:00 S 16 gust 19 1.1 8.0 102.1 16 16
11:00 S 16 gust 18 0.9 8.0 102.0 15 16
10:00 S 14 gust 18 0.9 15.0 102.0 16 16
9:00 SSE 12 gust 16 0.9 8.0 102.1 16 16
8:00 S 14 gust 16 0.9 16.0 102.1 16 16
7:00 SSE 14 gust 16 0.9 8.0 102.1 15 16
6:00 SSE 12 gust 16 0.9 8.0 102.1 15 16
5:00 SSE 12 gust 12 0.9 8.0 102.1 15 16
 
Map of Pacific - South Coast marine weather areas Tsawwassen Ferry Terminal South Nomad - 46036 Sentry Shoal - 46131 South Brooks - 46132 Halibut Bank - 46146 South Moresby - 46147 South Hecate Strait - 46185 West Sea Otter - 46204 La Perouse Bank - 46206 East Dellwood - 46207 Discovery Island Esquimalt Harbour Kelp Reefs Malahat Race Rocks Lightstation Saturna Island Sheringham Point University of Victoria Victoria Gonzales Victoria Int'l Airport Ballenas Islands Campbell River Airport Comox Airport Entrance Island Fanny Island Nanaimo Airport Port Hardy Airport Sisters Islets Estevan Point Sartine Island Solander Island Tofino Airport Grief Point Powell River Airport Sechelt Cape St.James Bella Bella Airport Bella Coola Airport Cathedral Point Herbert Island Point Atkinson Sand Heads Lightstation Vancouver Harbour Vancouver Int'l Airport West Vancouver Port Alberni Howe Sound - Pam Rocks Squamish Airport